GW6798 Weather Reports


time (UTC)temp
C
wind
direction
speed
KPH
gust
KPH
rain 1hr
cm
rain 24hr
cm
rain mn
cm
humidity
%
barometer
mb
20260509034101 12 220 6.4 11.3 0.00 0.64 0.64 92 1009.4
20260509033558 12 222 9.7 11.3 0.00 0.64 0.64 92 1009.7
20260509033055 12 218 6.4 9.7 0.00 0.64 0.64 92 1009.6
20260509032552 12 216 9.7 12.9 0.00 0.64 0.64 92 1009.5
20260509032049 12 232 11.3 12.9 0.00 0.64 0.64 92 1009.5
20260509031547 12 218 9.7 12.9 0.00 0.64 0.64 92 1009.7
20260509031044 12 217 9.7 14.5 0.00 0.64 0.64 92 1009.5
20260509030542 12 204 9.7 12.9 0.00 0.64 0.64 92 1009.7
20260509030038 12 219 11.3 12.9 0.00 0.64 0.64 92 1009.6
20260509025535 12 232 8.0 9.7 0.00 0.64 0.64 92 1009.9
20260509025030 12 200 6.4 9.7 0.00 0.64 0.64 92 1009.9
20260509024526 12 281 4.8 6.4 0.00 0.64 0.64 92 1009.7
20260509024023 12 211 6.4 11.3 0.00 0.64 0.64 92 1009.7
20260509023521 12 209 9.7 11.3 0.00 0.64 0.64 92 1009.8
20260509023017 12 216 6.4 11.3 0.00 0.64 0.64 92 1009.8
20260509022514 12 258 4.8 6.4 0.00 0.64 0.64 92 1009.7
20260509022012 12 211 6.4 11.3 0.00 0.64 0.64 92 1009.7
20260509021508 12 211 8.0 11.3 0.00 0.64 0.64 91 1009.6
20260509021005 12 215 8.0 12.9 0.00 0.64 0.64 91 1009.7
20260509020504 12 214 9.7 12.9 0.00 0.64 0.64 91 1009.7
20260509020000 12 210 9.7 11.3 0.00 0.64 0.64 91 1009.9
20260509015459 12 205 9.7 12.9 0.00 0.64 0.64 92 1009.7
20260509014955 12 234 9.7 12.9 0.00 0.64 0.64 92 1009.7
20260509014452 12 216 9.7 12.9 0.00 0.64 0.64 92 1009.6
20260509013948 12 219 9.7 12.9 0.00 0.64 0.64 92 1009.8
20260509013446 12 217 9.7 14.5 0.00 0.64 0.64 92 1009.5
20260509012941 12 207 12.9 14.5 0.00 0.64 0.64 92 1009.5
20260509012438 12 218 9.7 14.5 0.00 0.64 0.64 92 1009.5
20260509011935 12 208 9.7 12.9 0.00 0.64 0.64 92 1009.6
20260509011433 12 203 12.9 12.9 0.00 0.64 0.64 92 1009.5
20260509010930 12 209 12.9 14.5 0.00 0.64 0.64 91 1009.5
20260509010428 12 215 11.3 14.5 0.00 0.64 0.64 91 1009.6
20260509005925 12 209 11.3 14.5 0.00 0.64 0.64 91 1009.6
20260509005423 12 206 12.9 16.1 0.00 0.64 0.64 91 1009.6
20260509004922 12 208 9.7 12.9 0.00 0.64 0.64 91 1009.7
20260509004419 12 213 11.3 14.5 0.00 0.64 0.64 91 1009.5
20260509003917 12 202 11.3 16.1 0.00 0.64 0.64 91 1009.6
20260509003414 12 196 9.7 14.5 0.00 0.64 0.64 91 1009.4
20260509002911 12 199 11.3 12.9 0.00 0.64 0.64 91 1009.7
20260509002409 12 207 11.3 12.9 0.00 0.64 0.64 90 1009.7
20260509001906 12 210 9.7 12.9 0.00 0.64 0.64 91 1009.6
20260509001402 12 213 9.7 12.9 0.00 0.64 0.64 90 1009.4
20260509000859 12 216 11.3 14.5 0.00 0.64 0.64 90 1009.7
20260509000357 12 222 8.0 14.5 0.00 0.64 0.64 90 1009.7
20260508235853 12 213 6.4 11.3 0.00 0.64 0.64 90 1009.7
20260508235351 12 234 6.4 9.7 0.00 0.64 0.64 90 1009.8
20260508234848 12 196 6.4 9.7 0.00 0.64 0.64 90 1009.8
20260508234344 12 243 8.0 14.5 0.00 0.64 0.64 90 1009.9
20260508233843 12 214 6.4 12.9 0.00 0.64 0.64 91 1009.8
20260508233342 12 219 8.0 9.7 0.00 0.64 0.64 91 1009.8
20260508232838 12 208 8.0 11.3 0.00 0.64 0.64 90 1009.7
20260508232334 12 217 9.7 11.3 0.00 0.64 0.64 90 1009.6
20260508231833 13 217 6.4 12.9 0.00 0.64 0.64 90 1009.8
20260508231329 13 223 9.7 12.9 0.00 0.64 0.64 89 1009.6
20260508230826 13 226 8.0 11.3 0.00 0.64 0.64 90 1009.8
20260508230322 13 225 6.4 11.3 0.00 0.64 0.64 89 1009.8
20260508225820 13 215 11.3 12.9 0.00 0.64 0.64 90 1009.6
20260508225316 13 246 6.4 11.3 0.00 0.64 0.64 89 1009.8
20260508224814 12 203 8.0 11.3 0.00 0.64 0.64 90 1009.7
20260508224311 12 214 8.0 11.3 0.00 0.64 0.64 89 1010.0
20260508223809 13 242 9.7 11.3 0.00 0.64 0.64 89 1009.7
20260508223306 13 242 8.0 12.9 0.00 0.64 0.64 88 1009.8
20260508222804 13 215 8.0 14.5 0.00 0.64 0.64 89 1009.7
20260508222300 13 217 12.9 16.1 0.13 0.64 0.64 89 1009.8
20260508221757 13 236 6.4 14.5 0.13 0.64 0.64 89 1009.9
20260508221253 13 218 8.0 12.9 0.00 0.61 0.61 90 1010.1
20260508220749 12 219 16.1 16.1 0.00 0.61 0.61 90 1009.9
20260508220246 12 209 8.0 11.3 0.18 0.61 0.61 90 1009.9
20260508215742 12 246 4.8 11.3 0.18 0.61 0.61 89 1009.7
20260508215239 13 240 6.4 14.5 0.00 0.58 0.58 88 1010.1
20260508214736 13 244 9.7 12.9 0.13 0.58 0.58 88 1010.0
20260508214233 13 242 8.0 11.3 0.13 0.58 0.58 88 1010.0
20260508213730 13 235 9.7 11.3 0.00 0.56 0.56 88 1010.2
20260508213226 13 251 9.7 12.9 0.00 0.56 0.56 88 1009.9
20260508212723 13 247 6.4 9.7 0.18 0.56 0.56 88 1010.0
20260508212219 13 258 4.8 9.7 0.30 0.56 0.56 90 1010.1
20260508211715 13 237 6.4 9.7 0.13 0.53 0.53 90 1010.5
20260508211211 13 253 8.0 12.9 0.18 0.51 0.51 89 1010.5
20260508210709 13 279 8.0 12.9 0.00 0.48 0.48 88 1010.5
20260508210206 13 253 9.7 14.5 0.13 0.48 0.48 88 1010.4
20260508205702 13 250 4.8 12.9 0.13 0.48 0.48 88 1010.3
20260508205159 13 261 6.4 11.3 0.18 0.46 0.46 88 1010.6
20260508204655 13 259 11.3 12.9 0.18 0.46 0.46 89 1010.5
20260508204151 13 272 6.4 12.9 0.13 0.43 0.43 89 1010.5
20260508203647 13 278 8.0 12.9 0.18 0.41 0.41 88 1010.7
20260508203143 13 277 9.7 12.9 0.30 0.41 0.41 87 1011.0
20260508202640 13 279 6.4 14.5 0.30 0.38 0.38 87 1010.7
20260508202137 13 250 6.4 9.7 0.48 0.36 0.36 88 1010.6
20260508201634 13 286 6.4 9.7 0.48 0.33 0.33 88 1010.6
20260508201130 13 278 6.4 6.4 0.30 0.28 0.28 87 1010.7
20260508200627 13 251 6.4 6.4 0.30 0.25 0.25 86 1010.7
20260508200123 13 272 6.4 9.7 0.30 0.23 0.23 84 1010.6
20260508195620 13 294 8.0 12.9 0.13 0.20 0.20 84 1010.6
20260508195117 13 287 9.7 11.3 0.18 0.18 0.18 84 1010.8
20260508194613 13 275 12.9 14.5 0.18 0.18 0.18 82 1010.7
20260508194111 13 272 9.7 14.5 0.00 0.15 0.15 82 1010.7
20260508193607 13 268 12.9 16.1 0.13 0.15 0.15 81 1010.7
20260508193104 14 270 17.7 27.4 0.43 0.15 0.15 79 1010.8
20260508192600 15 289 20.9 35.4 0.30 0.13 0.13 75 1011.0
20260508192058 15 265 16.1 20.9 0.00 0.08 0.08 74 1010.8
20260508191554 15 252 17.7 20.9 0.00 0.08 0.08 73 1010.8
20260508191051 15 269 19.3 30.6 0.00 0.08 0.08 70 1010.7
20260508190548 15 265 16.1 20.9 0.18 0.08 0.08 71 1010.6
20260508190044 15 293 19.3 22.5 0.30 0.08 0.08 71 1010.6
20260508185542 16 251 30.6 40.2 0.13 0.05 0.05 67 1010.8
20260508185039 17 263 24.1 27.4 0.00 0.03 0.03 56 1010.5
20260508184537 17 275 20.9 22.5 0.00 0.03 0.03 54 1010.6
20260508184033 17 256 24.1 30.6 0.00 0.03 0.03 52 1010.5
20260508183530 17 247 20.9 25.7 0.00 0.03 0.03 53 1010.4
20260508183026 17 252 24.1 30.6 0.00 0.03 0.03 51 1010.6
20260508182523 18 280 17.7 17.7 0.00 0.03 0.03 53 1010.5
20260508182019 18 264 16.1 25.7 0.00 0.03 0.03 53 1010.6
20260508181514 18 281 25.7 33.8 0.00 0.03 0.03 51 1010.6
20260508181013 18 245 14.5 24.1 0.00 0.03 0.03 52 1010.6
20260508180509 18 247 19.3 24.1 0.00 0.03 0.03 51 1010.6
20260508180005 18 256 14.5 24.1 0.00 0.03 0.03 52 1010.7
20260508175501 18 281 19.3 24.1 0.00 0.03 0.03 51 1010.9
20260508174959 18 260 16.1 22.5 0.00 0.03 0.03 53 1010.9
20260508174457 18 216 17.7 24.1 0.00 0.03 0.03 52 1011.3
20260508173953 18 252 14.5 27.4 0.00 0.03 0.03 52 1011.1
20260508173450 17 248 19.3 22.5 0.00 0.03 0.03 52 1011.4
20260508172946 17 259 14.5 22.5 0.00 0.03 0.03 54 1011.5
20260508172444 17 253 12.9 20.9 0.00 0.03 0.03 55 1011.4
20260508171940 17 226 11.3 20.9 0.00 0.03 0.03 55 1011.8
20260508171436 16 245 12.9 20.9 0.00 0.03 0.03 56 1011.9
20260508170933 16 260 12.9 16.1 0.00 0.03 0.03 56 1011.9
20260508170431 17 264 14.5 17.7 0.00 0.03 0.03 56 1012.2
20260508165927 16 261 14.5 25.7 0.00 0.03 0.03 55 1012.3
20260508165425 16 240 14.5 22.5 0.00 0.03 0.03 55 1012.4
20260508164920 16 225 12.9 17.7 0.00 0.03 0.03 57 1012.6
20260508164418 16 240 12.9 17.7 0.00 0.03 0.03 56 1012.5
20260508163915 16 273 11.3 20.9 0.00 0.03 0.03 56 1012.8
20260508163413 16 279 11.3 14.5 0.00 0.03 0.03 58 1012.6
20260508162908 16 210 16.1 17.7 0.00 0.03 0.03 55 1012.7
20260508162406 16 255 8.0 20.9 0.00 0.03 0.03 57 1012.7
20260508161902 16 212 19.3 24.1 0.00 0.03 0.03 59 1012.9
20260508161400 16 205 11.3 16.1 0.00 0.03 0.03 58 1012.9
20260508160857 15 224 11.3 20.9 0.00 0.03 0.03 59 1012.9
20260508160356 15 228 12.9 17.7 0.00 0.03 0.03 61 1013.2
20260508155851 15 276 9.7 16.1 0.00 0.03 0.03 59 1013.2
20260508155349 15 220 11.3 17.7 0.00 0.03 0.03 62 1013.4
20260508154846 15 219 17.7 20.9 0.00 0.03 0.03 58 1013.5
20260508154343 15 273 14.5 17.7 0.00 0.03 0.03 58 1013.6
20260508153839 14 287 11.3 12.9 0.00 0.03 0.03 61 1014.0
20260508153337 14 269 9.7 12.9 0.00 0.03 0.03 59 1013.5
20260508152833 14 236 11.3 16.1 0.00 0.03 0.03 60 1013.8
20260508152329 13 223 17.7 22.5 0.00 0.03 0.03 61 1013.8
20260508151826 13 229 11.3 16.1 0.00 0.03 0.03 61 1013.9
20260508151323 13 271 14.5 14.5 0.00 0.03 0.03 61 1013.9
20260508150819 13 255 12.9 17.7 0.00 0.03 0.03 61 1013.8
20260508150316 13 246 6.4 14.5 0.00 0.03 0.03 65 1014.1
20260508145812 13 221 14.5 14.5 0.00 0.03 0.03 62 1014.0
20260508145308 13 217 16.1 16.1 0.00 0.03 0.03 61 1014.1
20260508144806 13 250 9.7 14.5 0.00 0.03 0.03 64 1014.2
20260508144303 13 257 6.4 11.3 0.00 0.03 0.03 67 1014.3
20260508143801 12 271 9.7 22.5 0.00 0.03 0.03 64 1014.1
20260508143258 12 260 9.7 12.9 0.00 0.03 0.03 66 1014.2
20260508142754 12 254 9.7 14.5 0.00 0.03 0.03 66 1014.2
20260508142251 12 261 6.4 12.9 0.00 0.03 0.03 69 1014.3
20260508141747 12 285 12.9 14.5 0.00 0.03 0.03 66 1014.5
20260508141245 12 263 11.3 14.5 0.00 0.03 0.03 67 1014.6
20260508140742 12 275 9.7 12.9 0.00 0.03 0.03 67 1014.5
20260508140239 12 265 6.4 11.3 0.00 0.03 0.03 68 1014.4
20260508135735 12 252 6.4 12.9 0.00 0.03 0.03 68 1014.3
20260508135231 12 241 8.0 11.3 0.00 0.03 0.03 67 1014.2
20260508134726 12 221 9.7 12.9 0.00 0.03 0.03 69 1014.1
20260508134224 12 231 11.3 12.9 0.00 0.03 0.03 67 1014.3
20260508133721 11 243 6.4 16.1 0.00 0.03 0.03 71 1014.1
20260508133219 11 212 9.7 14.5 0.00 0.03 0.03 72 1013.8
20260508132716 11 220 8.0 12.9 0.00 0.03 0.03 74 1014.2
20260508132213 11 219 8.0 9.7 0.00 0.03 0.03 77 1014.2
20260508131708 10 235 4.8 6.4 0.00 0.03 0.03 76 1014.3
20260508131205 10 253 3.2 3.2 0.00 0.03 0.03 79 1014.3
20260508130702 10 221 4.8 6.4 0.00 0.03 0.03 78 1014.1
20260508130159 10 218 4.8 4.8 0.00 0.03 0.03 78 1014.4
20260508125654 10 242 1.6 3.2 0.00 0.03 0.03 77 1014.3
20260508125151 10 269 3.2 4.8 0.00 0.03 0.03 76 1014.3
20260508124650 10 264 3.2 4.8 0.00 0.03 0.03 77 1014.3
20260508124146 10 246 6.4 9.7 0.00 0.03 0.03 76 1014.4
20260508123645 10 238 6.4 9.7 0.00 0.03 0.03 76 1014.2
20260508123142 10 253 4.8 9.7 0.00 0.03 0.03 78 1014.1
20260508122638 10 246 9.7 11.3 0.18 0.03 0.03 77 1014.3
20260508122135 10 245 11.3 14.5 0.18 0.03 0.03 78 1014.1
20260508121633 9 225 11.3 14.5 0.00 0.00 0.00 79 1014.3
20260508121131 9 207 12.9 17.7 0.00 0.00 0.00 79 1014.1
20260508120628 10 230 9.7 17.7 0.00 0.00 0.00 77 1014.1
20260508120126 10 200 8.0 17.7 0.00 0.00 0.00 78 1014.4
20260508115624 10 244 14.5 20.9 0.00 0.00 0.00 75 1014.3
20260508115120 10 233 14.5 17.7 0.00 0.00 0.00 74 1014.2
20260508114618 10 235 14.5 22.5 0.00 0.00 0.00 73 1014.2
20260508114113 10 237 17.7 24.1 0.00 0.00 0.00 71 1014.1
20260508113611 10 236 14.5 22.5 0.00 0.00 0.00 70 1013.7
20260508113109 10 204 11.3 22.5 0.00 0.00 0.00 70 1014.0
20260508112605 11 232 14.5 16.1 0.00 0.00 0.00 67 1014.2
20260508112102 11 253 11.3 20.9 0.00 0.00 0.00 66 1014.2
20260508111559 11 255 16.1 20.9 0.00 0.00 0.00 64 1013.8
20260508111056 11 267 11.3 22.5 0.00 0.00 0.00 64 1014.0
20260508110554 11 254 11.3 17.7 0.00 0.00 0.00 65 1014.0
20260508110049 11 243 17.7 20.9 0.00 0.00 0.00 65 1013.8
20260508105544 11 267 12.9 16.1 0.00 0.00 0.00 66 1013.8
20260508105042 11 243 16.1 16.1 0.00 0.00 0.00 66 1013.9
20260508104540 11 246 9.7 16.1 0.00 0.00 0.00 67 1013.7
20260508104036 11 257 12.9 17.7 0.00 0.00 0.00 66 1013.7
20260508103533 11 235 8.0 20.9 0.00 0.00 0.00 66 1013.7
20260508103031 11 251 11.3 14.5 0.00 0.00 0.00 67 1013.7
20260508102528 11 268 9.7 16.1 0.00 0.00 0.00 66 1013.6
20260508102026 11 263 14.5 20.9 0.00 0.00 0.00 66 1013.7
20260508101523 11 268 9.7 16.1 0.00 0.00 0.00 67 1013.6
20260508101020 10 270 14.5 17.7 0.00 0.00 0.00 66 1013.8
20260508100518 10 273 9.7 16.1 0.00 0.00 0.00 67 1013.6
20260508100015 10 271 9.7 17.7 0.00 0.00 0.00 68 1013.8
20260508095512 10 266 9.7 16.1 0.00 0.00 0.00 68 1014.0
20260508095008 10 261 14.5 17.7 0.00 0.00 0.00 68 1014.1
20260508094506 10 262 9.7 17.7 0.00 0.00 0.00 69 1014.0
20260508094003 10 259 9.7 14.5 0.00 0.00 0.00 70 1014.1
20260508093459 10 270 12.9 17.7 0.00 0.00 0.00 70 1013.9
20260508092957 10 244 11.3 14.5 0.00 0.00 0.00 69 1013.8
20260508092454 10 252 9.7 14.5 0.00 0.00 0.00 70 1014.0
20260508091953 10 257 8.0 11.3 0.00 0.00 0.00 69 1013.9
20260508091450 10 244 8.0 16.1 0.00 0.00 0.00 69 1013.9
20260508090947 10 229 8.0 16.1 0.00 0.00 0.00 69 1013.9
20260508090445 10 245 9.7 14.5 0.00 0.00 0.00 68 1013.8
20260508085941 10 238 11.3 16.1 0.00 0.00 0.00 68 1014.1
20260508085438 10 248 14.5 20.9 0.00 0.00 0.00 67 1013.7
20260508084935 10 249 8.0 14.5 0.00 0.00 0.00 67 1013.7
20260508084431 10 243 12.9 14.5 0.00 0.00 0.00 66 1013.8
20260508083929 10 246 11.3 22.5 0.00 0.00 0.00 65 1013.9
20260508083426 10 232 12.9 16.1 0.00 0.00 0.00 65 1013.9
20260508082926 10 261 16.1 22.5 0.00 0.00 0.00 65 1013.8
20260508082423 10 245 12.9 16.1 0.00 0.00 0.00 65 1013.9
20260508081921 10 270 12.9 16.1 0.00 0.00 0.00 65 1013.9
20260508081418 10 270 16.1 17.7 0.00 0.00 0.00 65 1013.9
20260508080914 10 251 9.7 14.5 0.00 0.00 0.00 65 1013.7
20260508080413 10 243 11.3 16.1 0.00 0.00 0.00 66 1013.9
20260508075909 10 232 12.9 17.7 0.00 0.00 0.00 66 1014.2
20260508075406 10 234 12.9 16.1 0.00 0.00 0.00 67 1013.9
20260508074904 10 250 12.9 16.1 0.00 0.00 0.00 69 1014.1
20260508074401 9 247 9.7 14.5 0.00 0.00 0.00 70 1014.0
20260508073857 9 244 9.7 16.1 0.00 0.00 0.00 71 1014.0
20260508073356 8 244 11.3 17.7 0.00 0.00 0.00 72 1014.0
20260508072852 8 214 8.0 11.3 0.00 0.00 0.00 73 1014.0
20260508072348 8 206 6.4 11.3 0.00 0.00 0.00 73 1014.0
20260508071845 9 229 6.4 17.7 0.00 0.00 0.00 72 1013.8
20260508071344 9 232 8.0 12.9 0.00 0.00 0.00 73 1014.1
20260508070841 9 205 9.7 16.1 0.00 0.00 0.00 73 1014.0
20260508070339 9 203 9.7 14.5 0.00 0.00 0.00 74 1014.0
20260508065837 9 218 12.9 14.5 0.00 0.00 0.00 74 1013.9
20260508065335 8 225 14.5 16.1 0.00 0.00 0.00 74 1014.1
20260508064833 8 219 11.3 14.5 0.00 0.00 0.00 74 1014.1
20260508064330 8 220 9.7 16.1 0.00 0.00 0.00 75 1014.1
20260508063827 8 209 9.7 14.5 0.00 0.00 0.00 74 1014.4
20260508063325 8 220 12.9 14.5 0.00 0.00 0.00 75 1014.2
20260508062822 8 219 11.3 16.1 0.00 0.00 0.00 75 1014.3
20260508062319 8 220 9.7 12.9 0.00 0.00 0.00 76 1014.2
20260508061816 8 217 9.7 14.5 0.00 0.00 0.00 77 1014.3
20260508061313 8 219 9.7 12.9 0.00 0.00 0.00 78 1014.3
20260508060810 8 216 11.3 12.9 0.00 0.00 0.00 78 1014.1
20260508060309 8 209 9.7 11.3 0.00 0.00 0.00 78 1014.3
20260508055808 8 221 9.7 11.3 0.00 0.00 0.00 77 1014.4
20260508055307 8 212 9.7 11.3 0.00 0.00 0.00 78 1014.2
20260508054802 8 226 6.4 9.7 0.00 0.00 0.00 78 1014.4
20260508054300 8 215 6.4 9.7 0.00 0.00 0.00 77 1014.4
20260508053757 8 221 8.0 12.9 0.00 0.00 0.00 79 1014.6
20260508053254 8 216 4.8 4.8 0.00 0.00 0.00 81 1014.5
20260508052751 8 218 4.8 6.4 0.00 0.00 0.00 81 1014.4
20260508052249 7 205 6.4 9.7 0.00 0.00 0.00 82 1014.6
20260508051744 8 222 3.2 4.8 0.00 0.00 0.00 81 1014.7
20260508051240 8 211 6.4 9.7 0.00 0.00 0.00 79 1014.4
20260508050737 8 202 6.4 6.4 0.00 0.00 0.00 80 1014.5
20260508050234 8 192 6.4 6.4 0.00 0.00 0.00 80 1014.4
20260508045729 8 215 4.8 4.8 0.00 0.00 0.00 80 1014.7
20260508045227 8 218 4.8 4.8 0.00 0.00 0.00 80 1014.4
20260508044725 8 286 4.8 4.8 0.00 0.00 0.00 80 1014.5
20260508044221 8 286 3.2 4.8 0.00 0.00 0.00 81 1014.5
20260508043717 8 286 3.2 3.2 0.00 0.00 0.00 81 1014.4
20260508043215 8 286 3.2 3.2 0.00 0.00 0.00 79 1014.6
20260508042711 8 287 0.0 0.0 0.00 0.00 0.00 78 1014.8
20260508042209 9 287 1.6 1.6 0.00 0.00 0.00 76 1014.6
20260508041705 9 288 1.6 3.2 0.00 0.00 0.00 76 1014.6
20260508041202 9 279 3.2 3.2 0.00 0.00 0.00 77 1014.6
20260508040659 9 283 1.6 3.2 0.00 0.00 0.00 76 1014.4
20260508040156 9 272 3.2 6.4 0.00 0.00 0.00 75 1014.6
20260508035653 9 254 3.2 4.8 0.00 0.00 0.00 76 1014.6
20260508035151 9 251 4.8 6.4 0.00 0.00 0.00 76 1014.7
20260508034647 9 277 6.4 9.7 0.00 0.00 0.00 77 1014.7